Location: Doussal
(55.6167°N, 116.8333°W)
Time: 04:06:13
(UTC+00:00)

METEOR M2 - Pass Details

Date: 14 December 2023
Orbit: 818 x 826 km, 98.4° (Epoch: 25 February)

Event Time Altitude Azimuth Distance (km) Brightness Sun altitude
Rises 01:32:16 0° 194° (SSW) 3,355 ? -17.7°
Reaches altitude 10° 01:34:52 10° 205° (SSW) 2,426 ? -18.0°
Maximum altitude 01:39:37 31° 267° (W) 1,415 ? -18.7°
Drops below altitude 10° 01:44:23 10° 329° (NNW) 2,439 ? -19.3°
Sets 01:47:01 0° 340° (NNW) 3,375 ? -19.7°
